User: anonymous   Login
Location: Corralito
(14.1667°N, 87.1833°W)
Time: 03:05:26
(UTC+00:00)
Language:

USA 229 - Orbit

View from above orbital plane
View from above orbital plane
View from above satellite
View from above satellite

Ground track
Ground track

The orbit data is extracted from the following two-line orbital elements,

1 37386U 11014A   20176.92703266 0.00000000  00000-0  00000-0 0    08
2 37386  63.4299  87.3043 0169000 359.7941   0.2059 13.40808549    09
Epoch (UTC): 24 June 2020 22:14:55
Eccentricity: 0.0169000
inclination: 63.4299°
perigee height: 980 km
apogee height: 1233 km
right ascension of ascending node: 87.3043°
argument of perigee: 359.7941°
revolutions per day: 13.40808549
mean anomaly at epoch: 0.2059°
orbit number at epoch: 0

The dashed part of the orbit path shows where the satellite is in the earth's shadow,  

DLR